W4TL Weather Reports


time (UTC)temp
C
wind
direction
speed
KPH
gust
KPH
rain 1hr
cm
rain 24hr
cm
rain mn
cm
humidity
%
barometer
mb
20260505211548 27 173 1.6 11.3 0.00 0.00 0.00 38 1014.4
20260505210059 27 122 3.2 16.1 0.00 0.00 0.00 39 1014.3
20260505204550 27 155 1.6 14.5 0.00 0.00 0.00 41 1014.5
20260505203051 27 0 1.6 16.1 0.00 0.00 0.00 41 1015.1
20260505201559 27 84 3.2 12.9 0.00 0.00 0.00 40 1015.1
20260505200048 27 113 3.2 11.3 0.00 0.00 0.00 40 1015.4
20260505194555 27 160 1.6 12.9 0.00 0.00 0.00 41 1015.4
20260505193050 27 148 1.6 12.9 0.00 0.00 0.00 39 1015.6
20260505191553 27 132 3.2 14.5 0.00 0.00 0.00 40 1015.7
20260505190111 27 110 4.8 12.9 0.00 0.00 0.00 39 1016.0
20260505184601 27 316 3.2 19.3 0.00 0.00 0.00 38 1016.0
20260505183054 27 117 3.2 12.9 0.00 0.00 0.00 40 1016.5
20260505181557 26 172 0.0 11.3 0.00 0.00 0.00 46 1016.4
20260505180052 26 292 3.2 14.5 0.00 0.00 0.00 43 1016.8
20260505174552 26 241 3.2 14.5 0.00 0.00 0.00 39 1016.9
20260505173053 26 224 3.2 12.9 0.00 0.00 0.00 41 1017.0
20260505171551 26 0 1.6 17.7 0.00 0.00 0.00 43 1016.9
20260505170059 25 237 3.2 17.7 0.00 0.00 0.00 41 1017.0
20260505164552 25 142 1.6 12.9 0.00 0.00 0.00 45 1017.1
20260505163058 25 182 3.2 11.3 0.00 0.00 0.00 47 1017.2
20260505161548 26 272 3.2 14.5 0.00 0.00 0.00 46 1017.2
20260505153102 24 142 1.6 11.3 0.00 0.00 0.00 53 1017.3
20260505151551 23 244 1.6 6.4 0.00 0.00 0.00 54 1017.6
20260505150108 22 115 0.0 3.2 0.00 0.00 0.00 60 1017.4
20260505140104 18 0 0.0 3.2 0.00 0.00 0.00 71 1017.5
20260505124611 11 0 0.0 4.8 0.00 0.00 0.00 100 1016.9
20260505123114 10 0 0.0 1.6 0.00 0.00 0.00 100 1017.0
20260505121552 8 0 0.0 1.6 0.00 0.00 0.00 99 1017.0
20260505120054 7 0 0.0 1.6 0.00 0.00 0.00 99 1016.9
20260505114602 7 0 0.0 0.0 0.00 0.00 0.00 99 1016.6
20260505113055 6 0 0.0 0.0 0.00 0.00 0.00 98 1016.5
20260505111600 6 0 0.0 0.0 0.00 0.00 0.00 97 1016.4
20260505101555 6 0 0.0 3.2 0.00 0.00 0.00 97 1016.4
20260505100103 7 0 0.0 1.6 0.00 0.00 0.00 97 1016.3
20260505094604 7 0 0.0 6.4 0.00 0.00 0.00 97 1016.3
20260505093058 7 0 0.0 8.0 0.00 0.00 0.00 97 1016.3
20260505091549 7 0 0.0 0.0 0.00 0.00 0.00 97 1016.2
20260505090058 7 207 0.0 0.0 0.00 0.00 0.00 96 1016.3
20260505084550 7 0 0.0 1.6 0.00 0.00 0.00 96 1016.2
20260505083106 7 0 0.0 0.0 0.00 0.00 0.00 96 1016.4
20260505081552 7 0 0.0 0.0 0.00 0.00 0.00 96 1016.3
20260505080056 7 0 0.0 0.0 0.00 0.00 0.00 96 1016.4
20260505074549 7 0 0.0 1.6 0.00 0.00 0.00 96 1016.2
20260505073057 8 0 0.0 1.6 0.00 0.00 0.00 95 1016.3
20260505071548 8 0 0.0 1.6 0.00 0.00 0.00 95 1016.2
20260505070057 8 0 0.0 1.6 0.00 0.00 0.00 95 1016.3
20260505064551 8 0 0.0 0.0 0.00 0.00 0.00 94 1016.3
20260505063051 8 0 0.0 0.0 0.00 0.00 0.00 94 1016.4
20260505061602 8 0 0.0 0.0 0.00 0.00 0.00 94 1016.5
20260505060051 8 0 0.0 0.0 0.00 0.00 0.00 93 1016.5
20260505054557 9 0 0.0 0.0 0.00 0.00 0.00 93 1016.4
20260505053053 9 0 0.0 0.0 0.00 0.00 0.00 91 1016.6
20260505051550 10 0 0.0 0.0 0.00 0.00 0.00 91 1016.6
20260505050125 10 0 0.0 0.0 0.00 0.00 0.00 91 1016.4
20260505041604 11 0 0.0 0.0 0.00 0.00 0.00 88 1016.5
20260505040059 11 0 0.0 0.0 0.00 0.00 0.00 87 1016.6
20260505034554 11 0 0.0 0.0 0.00 0.00 0.00 86 1016.5
20260505033050 12 0 0.0 0.0 0.00 0.00 0.00 84 1016.6
20260505031550 12 0 0.0 0.0 0.00 0.00 0.00 82 1016.6
20260505030052 12 0 0.0 0.0 0.00 0.00 0.00 81 1016.6
20260505024550 13 0 0.0 0.0 0.00 0.00 0.00 78 1016.4
20260505023054 13 0 0.0 0.0 0.00 0.00 0.00 77 1016.4
20260505021550 14 0 0.0 0.0 0.00 0.00 0.00 74 1016.3
20260505020050 15 0 0.0 0.0 0.00 0.00 0.00 71 1016.3
20260505014604 16 0 0.0 0.0 0.00 0.00 0.00 67 1016.2
20260505013054 17 0 0.0 0.0 0.00 0.00 0.00 63 1015.9
20260505011558 18 0 0.0 1.6 0.00 0.00 0.00 60 1015.9
20260505010055 19 0 0.0 0.0 0.00 0.00 0.00 56 1015.7
20260505004553 20 0 0.0 0.0 0.00 0.00 0.00 52 1015.6
20260505003054 21 0 0.0 3.2 0.00 0.00 0.00 48 1015.4
20260505001609 22 146 0.0 3.2 0.00 0.00 0.00 45 1015.3
20260505000131 22 0 0.0 8.0 0.00 0.00 0.00 44 1015.2
20260504234605 23 168 3.2 14.5 0.00 0.00 0.00 41 1015.3
20260504233102 24 148 1.6 8.0 0.00 0.00 0.00 40 1015.0
20260504231555 25 153 1.6 9.7 0.00 0.00 0.00 39 1015.2
20260504230053 25 263 1.6 9.7 0.00 0.00 0.00 39 1015.0
20260504224606 26 153 1.6 11.3 0.00 0.00 0.00 37 1015.0
20260504223047 26 207 1.6 8.0 0.00 0.00 0.00 36 1014.9
20260504221549 26 174 0.0 8.0 0.00 0.00 0.00 36 1015.0
20260504220058 26 0 0.0 8.0 0.00 0.00 0.00 37 1014.9
20260504214548 26 136 3.2 9.7 0.00 0.00 0.00 35 1015.0
20260504213109 26 189 0.0 6.4 0.00 0.00 0.00 37 1015.1
20260504211555 26 141 1.6 4.8 0.00 0.00 0.00 36 1015.0